User: anonymous
Location: ROBOsky.com Wild Flower Ridge Observatory
(43.9736°N, 79.9739°W)
Time: 07:24:05
(UTC-04:00)
Language:

Cosmos 1190 Rocket - Orbit

View from above orbital plane
View from above orbital plane
View from above satellite
View from above satellite

Ground track
Ground track

The orbit data is extracted from the following two-line orbital elements,

1 11870U 80056B   14234.76756189  .00000064  00000-0  30671-4 0  7909
2 11870 074.0529 297.8162 0015518 149.2854 340.8795 14.36516060786979
Epoch (UTC): 22 August 2014 18:25:17
Eccentricity: 0.0015518
inclination: 74.0529°
perigee height: 759 km
apogee height: 781 km
right ascension of ascending node: 297.8162°
argument of perigee: 149.2854°
revolutions per day: 14.36516060
mean anomaly at epoch: 340.8795°
orbit number at epoch: 78697

The dashed part of the orbit path shows where the satellite is in the earth's shadow,  

DLR